STARLINK-5181, 54070

Orbit data source: Space-Track

STARLINK-5181, 54070 is a payload satellite owned by SpaceX/Seattle (US) in LEO that was launched on Thu, 20 Oct 2022 UTC via an FALCON 9 launch vehicle from the Air Force Eastern Test Range (AFETR). Payload-class satellites include a variety of spacecraft equipped with specific instruments for various scientific and technological missions. These include communications satellites like Starlink; space stations such as the ISS; scientific satellites like the Hubble; Earth observation satellites from companies like Planet Labs, Umbra, and HawkEye 360; GPS; miniature CubeSats for education and research; and military/defense satellites.

Loading next visibility...
Identifier
54070, 2022-136V
Orbit
LEO
Country
Flag of USUS
Related business
Manufacturer
SpaceX/Seattle
Mission
Operational Commercial Communications
Bus & Motor
STARLINK, Unknown motor
Mass
305 kg wet, ~290 kg dry
Launch date (UTC)
2022-10-20 (3 years ago)
Launch vehicle
FALCON 9
Launch site
Air Force Eastern Test Range (AFETR)
Object type
Payload
Rocket body
Debris
Shape & HBR
Box + 1 Pan, 10.1 m
Radar Cross Section
13.562 m², Large (>1 m²)

Expand to show TLE details & history
Last TLE update: 6 hours ago

TLE from 6 hours ago
0 STARLINK-5181
1 54070U 22136V   25303.76219441  .00002344  00000-0  16528-3 0  9995
2 54070  53.2174 207.0844 0000815  92.0872 268.0214 15.08847497167232
Epoch: 2025-10-30T18:17Z
TLE epoch observation values (Epoch: 2025-10-30T18:17:33.597Z)
Latitude
0.00004°
Longitude
-106.62189°
Altitude
540.637 km
Speed
7.593 km/s
True Right ascension
13h 48m 20s
True Declination
0° 00' 00"
Sunlit
Object was in daylight at epoch
Visualization orbit readout
Latitude
Unknown
Longitude
Unknown
Altitude
Unknown
Speed
Unknown
Apparent Right ascension
Unknown
Apparent Declination
Unknown
Sunlit
N/A
Visualization observer readout
Local Sidereal Time
20:13:03
Azimuth
Unknown
Elevation
Unknown
Doppler factor
Unknown
Orbital elements
Apogee altitude
540.529 km
Perigee altitude
539.402 km
Semi-major axis
6,918.102 km
Eccentricity
0.00008
Inclination
53.2174°
RAAN
207.0844°
Arg. of periapsis
92.0872°
True anomaly
268.01207°
Mean anomaly
268.0214°
Eccentric anomaly
268.01673°
Mean motion
3.77192 °/min
Orbital period
95.44 mins
BSTAR
0.00016528
Loading maneuver chart data...
Computing Atmospheric mass density...
Loading historical data...
Loading historical data...
Loading historical data...
Loading historical data...
Loading historical data...
Loading historical data...
Loading historical data...

Documentation

Showing up to 5 results
|